Cloud_Cover
0 0 0 0 0 4 81 70 100 100 12 13 97 100 100 94 100 100 67 96 100 100 100 43 37 0 1 6 14 0 0 3 7 0 5 100 98 1 93 42 12 39 12 12
0 0 0 0 0 17 63 96 100 80 49 100 100 99 100 100 100 100 100 100 90 100 100 68 100 5 0 3 9 3 0 0 5 0 74 82 47 36 100 58 17 90 8 0
0 0 0 0 0 0 24 98 52 4 89 100 100 53 100 100 100 100 100 100 98 100 100 98 100 25 0 0 42 5 0 1 1 96 84 39 20 31 15 10 41 29 45 4
0 0 0 0 4 0 4 11 86 69 5 69 59 100 100 55 58 81 97 100 100 100 100 100 100 42 12 0 0 0 0 2 0 18 20 1 0 30 99 7 7 7 79 88
0 0 0 0 3 0 8 48 26 4 2 72 88 96 100 95 52 93 74 96 100 100 69 100 100 100 38 8 0 0 0 0 4 0 55 0 93 95 100 97 23 10 2 71
2 0 0 1 5 2 89 94 7 5 5 80 16 12 88 100 100 100 95 89 62 92 54 44 100 100 92 17 4 0 0 0 0 0 0 0 52 100 92 31 14 0 0 6
29 7 7 5 18 4 98 23 5 1 0 4 22 17 100 97 55 17 37 88 100 99 100 100 9 100 98 30 0 2 0 0 0 0 0 0 0 1 21 15 23 96 49 88
6 7 21 0 24 44 5 5 2 2 0 0 83 100 97 100 94 100 47 40 33 13 94 86 84 47 99 100 13 0 0 0 0 0 0 0 0 0 0 20 97 25 100 95
98 82 3 0 11 3 26 1 8 94 13 6 48 6 98 84 55 97 100 100 100 49 82 46 27 28 100 76 25 0 0 0 0 0 0 0 0 0 0 30 4 15 0 100
100 67 0 0 0 0 0 3 36 16 99 86 69 0 1 99 72 96 100 100 100 100 13 36 99 82 100 97 60 94 1 0 1 2 6 1 0 2 0 0 0 0 9 0
86 90 10 0 0 0 0 0 8 85 94 100 100 70 21 2 10 96 100 100 100 100 100 99 74 94 98 65 83 37 45 18 13 2 14 9 100 13 4 0 0 0 0 0
4 10 13 2 0 0 0 3 5 5 5 79 100 86 100 90 32 36 100 100 100 100 100 83 74 34 90 27 100 100 92 13 90 0 94 14 20 81 14 7 2 0 0 0
86 13 100 2 0 0 0 0 0 5 78 98 59 89 100 100 100 88 84 100 99 100 76 62 49 33 66 100 100 92 25 28 55 100 49 85 52 81 25 27 52 11 0 0
100 100 93 100 64 1 0 0 0 4 5 56 72 97 98 100 86 79 79 100 100 99 100 95 98 96 82 97 100 100 100 94 58 82 100 100 85 98 29 16 44 63 39 0
78 100 100 62 0 0 5 0 0 0 0 72 98 34 66 65 100 100 100 100 100 100 100 100 100 100 100 100 100 99 100 100 88 74 93 100 100 100 100 53 13 2 7 12
100 100 80 100 58 2 0 0 0 0 0 68 6 92 98 100 99 96 100 100 100 88 52 37 92 100 96 99 100 95 100 100 100 100 88 100 100 100 70 16 98 66 21 7
77 100 100 90 99 91 6 6 0 0 0 1 4 0 34 79 95 90 69 97 77 41 9 0 0 1 2 14 6 6 67 100 100 100 100 100 100 100 100 87 47 90 100 98
30 4 93 100 76 89 79 15 6 1 0 0 15 12 0 77 58 56 83 54 4 0 0 0 0 0 0 0 0 0 68 88 100 100 100 100 99 100 100 100 91 18 17 55
100 98 68 7 12 100 12 7 44 100 42 63 30 99 93 100 100 100 72 0 0 0 0 0 0 0 0 0 0 0 0 0 42 58 14 23 90 100 100 100 100 66 92 54
0 0 3 97 10 8 84 22 57 100 10 86 32 100 100 97 68 86 11 0 0 0 0 0 0 0 0 0 0 0 0 0 0 2 19 9 4 91 97 100 100 96 77 96
0 1 0 0 18 71 0 3 5 90 98 18 39 8 71 64 25 55 1 0 0 0 0 0 0 0 0 0 0 0 0 0 0 0 0 4 16 4 76 100 100 99 85 67
15 52 69 36 56 100 0 0 2 4 4 57 94 73 82 11 20 0 0 0 0 0 0 0 0 0 0 0 0 0 0 0 0 0 0 0 0 1 0 12 100 100 98 79
4 41 76 98 98 7 8 5 0 0 1 3 3 6 24 96 88 6 0 0 0 0 0 0 0 0 0 0 0 0 0 0 0 0 0 0 0 0 0 0 2 100 100 100
32 16 5 5 7 4 5 1 2 2 5 0 4 2 0 0 3 8 5 5 5 0 0 0 0 0 0 0 0 0 0 0 0 0 0 0 0 0 0 0 0 3 70 100
82 82 99 3 13 5 5 5 5 0 2 2 0 0 0 0 0 0 1 4 5 5 5 0 0 0 0 1 0 0 0 0 0 0 0 0 0 0 0 0 0 0 18 54
82 5 58 95 96 64 7 16 5 5 2 0 0 0 0 0 0 0 0 5 5 5 2 3 3 1 0 0 0 4 17 13 7 0 0 0 0 0 0 0 0 0 1 5